TDRS 3

Last updated on Thu Nov 21 2024 00:02:35 GMT+0000 (Coordinated Universal Time)

1 19548U 88091B 24324.42787556 -.00000302 00000+0 00000+0 0 9996 2 19548 13.0436 344.8472 0039935 334.9919 204.2252 1.00266468119624
UTC large
Height (km)
Speed (km/s)
/
Latitude / Longitude
Inclination (degrees)
Orbital Period (minutes)
Azimuth
Elevation
Range (km)
Doppler Factor

Next 0 passes for location: London (51.5072 / 0.1276)

Sorry there are no passes over London.